Погода в Бекетовке

Россия / Ульяновская область     53°45′19″N   48°44′33″E
В апреле 2022 года жителям России запретили посещать сайт meteo.paraplan.net по решению Генеральной прокуратуры. Аудитория сайта уменьшилась в 10 раз. Владельцы сайта не видят смысла в поддержке погодного сервера в таких условиях. Сайт будет закрыт в октябре.
темп.,
°C
ветер,
м/с
пор.,
м/с
влажн.,
%
обл.,
%
осадки,
мм/ч
давл.,
гПа
погр.,
м
30 сентября, пт
пт3001:00+12с1197100 0.0 101550
04:00+11св2497100 0.1 1018212
07:00+10св349695 0.0 1020248
10:00+11всв338988 0.0 1021331
13:00+12всв2281100 0.0 1022378
16:00+13св2378100 0.0 1023298
19:00+12св2382100 0.0 1024123
22:00+12в2382100 0.0 102490
1 октября, сб
сб101:00+11вюв2284100 0.0 102489
04:00+11вюв2285100 0.0 102473
07:00+11юв238665 0.0 1024122
10:00+13ююв33745 0.0 1024346
13:00+16ююв336145 0.0 1023747
16:00+17ююв346065 0.0 1022822
19:00+13юв3474100 0.0 102151
22:00+12ююв3777100 0.0 1020129
2 октября, вс
вс201:00+12ююв397997 0.0 1019215
04:00+12ююв31183100 0.0 1018249
07:00+12ю4128746 0.0 1016254
10:00+16ю71472100 0.0 1016553
13:00+18ю81267100 0.2 1015703
16:00+17ююз6117498 0.4 1014753
19:00+16ю61383100 2.3 1014406
22:00+15ю51287100 3.5 1014367
3 октября, пн
пн301:00+15ю71691100 0.1 1013479
04:00+14ююв41189100 0.6 1013371
07:00+14ююв5128873 0.0 1014353
10:00+16ююв71570100 0.0 1014536
13:00+19ю81551100 0.0 1015934
16:00+18ю8154896 0.0 1016989
19:00+16ююв8164694 0.0 1017747
22:00+16ююв91840100 0.0 1018811
4 октября, вт
вт401:00+14ю81737100 0.0 1019763
04:00+13ююв71735100 0.0 1019660
07:00+12ююв71635100 0.0 1020615
10:00+13ююв71535100 0.0 1021751
13:00+15ю71134100 0.0 1022949
16:00+16ю61036100 0.0 10231367
19:00+13ю3742100 0.0 1025176
22:00+14ююз71136100 0.0 10251280